This demonstration page uses our WeatherBlox Daily Observations layout. Learn more.

Left ArrowRight Arrow

Hourly Observations for July 3, 2022

Temp ( °F °C ) Dew Point ( °F °C ) Humidity (%) Winds ( mph kmh ) Pressure ( in mb ) Visibility ( mi km ) Precip ( " mm )
12:53 am 00:53 Clear 70 21.1 67 19.4 90 90 SSE 7 11 30.01 1016 10 16 0.00 0.00
1:53 am 01:53 Clear 69 20.6 67 19.4 93 93 S 7 11 30.01 1016 9 14 0.00 0.00
2:53 am 02:53 Clear 68 20 67 19.4 96 96 SSE 6 9 30.01 1016 7 11 0.00 0.00
3:20 am 03:20 Mostly Clear with Mist and Fog 68 20 67 19.4 96 96 SSE 6 9 30.00 1016 6 10 0.00 0.00
3:40 am 03:40 Mostly Cloudy with Mist and Fog 68 20 67 19.4 96 96 S 7 11 30.00 1016 5 8 0.00 0.00
3:47 am 03:47 Mostly Cloudy with Mist and Fog 68 20 66 19 94 94 SSE 9 15 30.00 1016 2 3 0.00 0.00
3:53 am 03:53 Mostly Cloudy with Mist and Fog 67 19.4 67 19.4 100 100 SSE 9 15 30.01 1016 1 1 0.00 0.00
4:06 am 04:06 Mostly Cloudy with Fog 67 19.4 67 19.4 100 100 SSE 9 15 30.00 1016 0 0 0.00 0.00
4:44 am 04:44 Mostly Cloudy with Fog 67 19.4 67 19.4 100 100 SE 7 11 29.99 1016 1 1 0.00 0.00
4:53 am 04:53 Mostly Cloudy with Fog 67 19.4 67 19.4 100 100 SE 6 9 30.01 1016 1 1 0.00 0.00
5:02 am 05:02 Mostly Cloudy with Fog 67 19.4 67 19.4 100 100 SE 5 7 29.99 1016 0 0 0.00 0.00
1:53 pm 13:53 Mostly Cloudy 82 27.8 72 22.2 72 72 SE 14 22 29.95 1014 10 16 0.00 0.00
2:25 pm 14:25 Partly Cloudy 84 28.9 72 22.2 67 67 ESE 14 22 29.87 1011 10 16 0.00 0.00
2:35 pm 14:35 Mostly Cloudy 84 29 72 22 66 66 SE 15 24 29.87 1011 10 16 0.00 0.00
3:53 pm 15:53 Mostly Cloudy 86 30 73 22.8 65 65 SSE 13 20 29.92 1013 10 16 0.00 0.00
4:53 pm 16:53 Partly Cloudy 86 30 72 22.2 63 63 SE 15 24 29.91 1013 10 16 0.00 0.00
5:53 pm 17:53 Mostly Cloudy 85 29.4 73 22.8 68 68 SE 14 22 29.89 1012 10 16 0.00 0.00
6:53 pm 18:53 Sunny 84 28.9 74 23.3 72 72 SE 14 22 29.87 1011 10 16 0.00 0.00
7:53 pm 19:53 Sunny 82 27.8 74 23.3 77 77 ESE 14 22 29.86 1011 10 16 0.00 0.00
9:34 pm 21:34 Partly Cloudy with Thunderstorms 80 26.7 74 23.3 82 82 SSE 12 19 29.84 1011 10 16 0.00 0.00
9:53 pm 21:53 Mostly Cloudy with Thunderstorms 79 26.1 73 22.8 82 82 S 15 24 29.92 1013 9 14 0.00 0.00
10:28 pm 22:28 Mostly Cloudy with Nearby Thunderstorms 76 24.4 72 22.2 88 88 SE 13 20 29.84 1010 10 16 0.14 3.56
10:35 pm 22:35 Partly Cloudy with Light Rain 76 24.4 73 22.8 91 91 ESE 10 17 29.83 1010 9 14 0.14 3.56
10:53 pm 22:53 Clear with Light Rain 78 25.6 75 23.9 90 90 SSE 15 24 29.87 1012 9 14 0.14 3.56
11:30 pm 23:30 Mostly Cloudy with Nearby Thunderstorms 77 25 75 23.9 94 94 ESE 12 19 29.81 1010 10 16 0.07 1.78
11:53 pm 23:53 Mostly Cloudy with Nearby Thunderstorms 78 25.6 74 23.3 87 87 SSE 8 13 29.88 1012 9 14 0.09 2.29

Powered by AerisWeather